Regional Weather Roundup
Issued by NWS

Home | Current Version | Previous Version | Text Only | Print | Product List | Glossary Off
Versions: 1 2 3 4 5 6 7 8 9 10 11 12 13 14 15 16 17 18 19 20 21 22 23 24 25 26 27 28

000
ASUS45 KPSR 242210
RWRAZ

ARIZONA HOURLY REGIONAL WEATHER ROUNDUP
NATIONAL WEATHER SERVICE PHOENIX AZ
300 PM MST TUE MAY 24 2016

NOTE: FAIR INDICATES FEW OR NO CLOUDS BELOW 12,000 FEET WITH NO
SIGNIFICANT WEATHER AND/OR OBSTRUCTIONS TO VISIBILITY.

AZZ001>003-036-242300-
NORTHWEST ARIZONA

CITY           SKY/WX    TMP DP  RH WIND       PRES   REMARKS
BULLHEAD CITY  SUNNY     84  27  12 SW15G26   29.82F
KINGMAN        NOT AVBL
$$

AZZ004>008-015-016-018-242300-
NORTH CENTRAL ARIZONA

CITY           SKY/WX    TMP DP  RH WIND       PRES   REMARKS
GRAND CANYON   MOSUNNY   66  21  18 SW26G32   30.01S
WILLIAMS       SUNNY     64  19  17 SW28G39   30.11R
PRESCOTT       MOSUNNY   70  29  21 S22G32    29.99S
FLAGSTAFF      SUNNY     60  24  25 SW17G40   30.06S
PAYSON         SUNNY     72  16  12 SW18G26   30.05S
PAGE           MOSUNNY   77  21  12 SW14G28   29.83F
$$

AZZ009>014-017-242300-
NORTHEAST ARIZONA

CITY           SKY/WX    TMP DP  RH WIND       PRES   REMARKS
WINSLOW        SUNNY     77  18  11 S26G36    29.96F
SAINT JOHNS    SUNNY     76  12   8 SW28G39   29.99F
WINDOW ROCK    SUNNY     71  13  10 SW25G39   30.03F
SHOW LOW       SUNNY     66  16  14 S22G40    30.06S
$$

AZZ023-242300-
GREATER PHOENIX AREA

CITY           SKY/WX    TMP DP  RH WIND       PRES   REMARKS
PHOENIX        SUNNY     86  30  13 VRB5      29.85F
BUCKEYE        SUNNY     86  32  14 W15G21    29.88F
GLENDALE       SUNNY     88  34  14 S14G21    29.88F
LUKE AFB       SUNNY     86  33  15 SW18      29.86F
DEER VALLEY    SUNNY     84  32  15 SW12G21   29.87S
SCOTTSDALE     SUNNY     85  30  13 SE6       29.89F
MESA-FALCON    SUNNY    N/A N/A N/A SW12      29.85F
MESA-GATEWAY   SUNNY     86  27  11 MISG      29.88F
CHANDLER       SUNNY     88  25  10 SW10      29.87F
$$

AZZ027-028-242300-
SOUTHWEST MARICOPA COUNTY AND PINAL COUNTY

CITY           SKY/WX    TMP DP  RH WIND       PRES   REMARKS
CASA GRANDE    SUNNY     88  28  11 NW12G18   29.88F
GILA BEND      SUNNY     88  33  14 SW16G25   29.85F
$$

AZZ503-504-507>509-242300-
SOUTHEAST ARIZONA

CITY           SKY/WX    TMP DP  RH WIND       PRES   REMARKS
TUCSON         SUNNY     88  12   6 W16G25    29.92F
DAVIS-MONTHAN  SUNNY     88  14   6 W15G21    29.90F
RYAN FIELD     SUNNY     90  18   7 S13G24    29.92F
NOGALES        SUNNY     84  22  10 SW18G28   30.00F
SIERRA VISTA   SUNNY     81  16   9 SW18G36   30.03F
DOUGLAS        SUNNY     86  23  10 SW18G33   29.99F
SAFFORD        SUNNY     88  19   8 CALM      29.88F
$$

AZZ020-021-025-026-031-242300-
SOUTHWEST ARIZONA

CITY           SKY/WX    TMP DP  RH WIND       PRES   REMARKS
YUMA           MOSUNNY   84  32  15 W13G22    29.88F
$$

CAZ031-033-041-043-047-048-061-242300-
SOUTHERN CALIFORNIA

CITY           SKY/WX    TMP DP  RH WIND       PRES   REMARKS
DOWNTOWN L.A.  MOSUNNY   69  52  54 VRB6      30.00S
L.A. AIRPORT   MOSUNNY   65  53  65 W14G21    30.02S
SAN DIEGO      PTSUNNY   67  51  56 W9        30.07S
BURBANK        PTSUNNY   68  49  50 S10       29.99F
ONTARIO        MOSUNNY   71  45  39 W14       29.99S
RIVERSIDE      MOSUNNY   71  46  40 W14G20    29.98F
PALM SPRINGS   MOSUNNY   83  37  19 W17G25    29.87F
EL CENTRO NAS  MOSUNNY   84  35  17 W17G26    29.89F
IMPERIAL       SUNNY     86  39  19 W20G25    29.87F
BLYTHE         SUNNY     86  28  12 SW20G29   29.85F
NEEDLES        SUNNY     87  30  13 SW16G29   29.82F
$$

NVZ020-UTZ003-242300-
SOUTHERN NEVADA-UTAH

CITY           SKY/WX    TMP DP  RH WIND       PRES   REMARKS
LAS VEGAS      MOSUNNY   78  30  17 S15G25    29.79S
SALT LAKE CITY LGT RAIN  64  40  41 N24       29.83R
$$

NMZ009-TXZ055-242300-
NEW MEXICO-WEST TEXAS

CITY           SKY/WX    TMP DP  RH WIND       PRES   REMARKS
ALBUQUERQUE    MOSUNNY   83  15   8 SW23G38   29.93F
EL PASO        MOSUNNY   89   8   5 SW22G36   29.95F
$$


........................KEY........................
SKY/WX - SKY CONDITION/WEATHER
TMP    - TEMPERATURE IN FAHRENHEIT
DP     - DEW POINT IN FAHRENHEIT
RH     - RELATIVE HUMIDITY IN PERCENT
WIND   - DIRECTION AND SPEED IN MILES PER HOUR (MPH)
VRB    - VARIABLE WIND DIRECTION
PRES   - MEAN SEA LEVEL PRESSURE IN INCHES OF MERCURY
         F - FALLING PRESSURE   R - RISING PRESSURE
         S - STEADY PRESSURE
VSB    - VISIBILITY IN MILES
HX     - HEAT INDEX IN FAHRENHEIT
WCI    - WIND CHILL INDEX IN FAHRENHEIT
TC     - TEMPERATURE IN CELSIUS WHICH IS ALSO KNOWN AS
         TEMPERATURE IN CENTIGRADE
AFB    - AIR FORCE BASE
         LUKE AFB IS LUKE AIR FORCE BASE
         DAVIS-MONTHAN IS DAVIS-MONTHAN AIR FORCE BASE
NAS    - NAVAL AIR STATION
         EL CENTRO NAS IS EL CENTRO NAVAL AIR STATION
N/A    - NOT AVAILABLE





USA.gov is the U.S. government's official web portal to all federal, state and local government web resources and services.